{"data":{"norad_id":60206,"intl_designator":"2024-125D","name":"R5-S4","alt_names":[],"object_type":"PAYLOAD","status":"ACTIVE","operator":null,"country":"US","launch_date":"2024-07-04","launch_site_code":"AFWTR","launch_vehicle":null,"mission":null,"orbit_class":"UNKNOWN","rcs_meters":null,"size_class":null,"mass_kg":null,"dimensions":null,"purposes":[],"wikipedia_slug":null,"has_3d_model":false,"image_url":null,"decayed_at":null,"tle_current":{"epoch":"2026-05-25T01:19:32.856960Z","epoch_age_seconds":67376,"freshness":"FRESH","line1":"1 60206U 24125D   26145.05524140  .00013562  00000+0  31501-3 0  9996","line2":"2 60206  97.2428 356.4270 0015090 318.9860  41.0252 15.42354514105560","mean_motion":15.42354514,"eccentricity":0.001509,"inclination_deg":97.2428,"raan_deg":356.427,"arg_perigee_deg":318.986,"mean_anomaly_deg":41.0252,"bstar":0.00031501,"rev_number":10556,"period_min":93.363749185358,"perigee_km":428.87511293621,"apogee_km":449.449722579,"semimajor_km":6817.2994177576,"source":"CELESTRAK","updated_at":"2026-05-25T13:38:01.926783Z"}}}